Vernon, British Columbia

4:55 PM PDT on May 27, 2017 (GMT -0700)
Vernon

Weather History for CWJV - October, 2012

Change the Weather History Date:

Saturday, October 13, 2012

  Actual Average (CYLW) Record (CYLW)
Temperature  
Mean Temperature 54 °F -  
Max Temperature 59 °F 54 °F 66 °F (1999)
Min Temperature 50 °F 33 °F 21 °F (2002)
Degree Days  
Heating Degree Days 10    
Growing Degree Days 4 (Base 50)    
Moisture  
Dew Point 49 °F    
Average Humidity 87    
Maximum Humidity 94    
Minimum Humidity 67    
Precipitation  
Precipitation 0.01 in - - ()
Sea Level Pressure  
Sea Level Pressure 29.98 in    
Wind  
Wind Speed 3 mph ()    
Max Wind Speed 8 mph    
Max Gust Speed -    
Averages and records for this station are not official NWS values.
T = Trace of Precipitation, MM = Missing Value Source: Averaged Metar Reports

Daily Weather History Graph

Daily Weather History Graph

Search for Another Location

Airport or City:

Trip Planner

Search our weather history database for the weather conditions in past years. The results will help you decide how hot, cold, wet, or windy it might be!

Date:

Astronomy

Oct. 13, 2012 Rise Set
Actual Time 7:17 AM PDT 6:08 PM PDT
Civil Twilight 6:44 AM PDT 6:41 PM PDT
Nautical Twilight 6:06 AM PDT 7:18 PM PDT
Astronomical Twilight 5:29 AM PDT 7:56 PM PDT
Moon 5:04 AM PDT (10/13) 5:00 PM PDT (10/13)
Length of Visible Light 11h 56m
Length of Day
10h 51m
Waning Crescent, 4% of the Moon is Illuminated
Oct 13
Waning Crescent
Oct 15
New
Oct 21
First Quarter
Oct 29
Full
Nov 6
Last Quarter

Hourly Weather History & Observations

Time (PDT) Temp. Dew Point Humidity Pressure Visibility Wind Dir Wind Speed Gust Speed Precip Events Conditions
12:00 AM 52.3 °F 48.7 °F 88% 29.84 in - SSE 1.2 mph - N/A   Unknown
2:00 AM 51.8 °F 49.1 °F 90% 29.85 in - East 3.5 mph - N/A   Unknown
3:00 AM 51.6 °F 49.1 °F 91% 29.86 in - East 3.5 mph - N/A   Unknown
4:00 AM 51.3 °F 49.1 °F 92% 29.88 in - East 3.5 mph - N/A   Unknown
5:00 AM 51.1 °F 49.3 °F 94% 29.89 in - East 4.6 mph - N/A   Unknown
6:00 AM 50.9 °F 49.1 °F 94% 29.91 in - East 3.5 mph - N/A   Unknown
7:00 AM 50.9 °F 48.9 °F 93% 29.93 in - ESE 6.9 mph - N/A   Unknown
8:00 AM 50.5 °F 48.9 °F 94% 29.94 in - East 1.2 mph - N/A   Unknown
9:00 AM 52.3 °F 49.6 °F 91% 29.96 in - ENE 1.2 mph - N/A   Unknown
10:00 AM 53.1 °F 49.8 °F 89% 29.98 in - East 2.3 mph - N/A   Unknown
11:00 AM 54 °F 51 °F 85% 29.99 in - ENE 3.5 mph - -  
11:00 AM 54.0 °F 50.7 °F 89% 29.99 in - ENE 3.5 mph - N/A   Unknown
12:00 PM 55.6 °F 51.6 °F 87% 30.01 in - East 2.3 mph - N/A   Unknown
1:00 PM 56.5 °F 51.1 °F 82% 30.01 in - North 1.2 mph - N/A   Unknown
2:00 PM 57.4 °F 50.7 °F 78% 30.00 in - Calm Calm - N/A   Unknown
3:00 PM 59.5 °F 48.4 °F 67% 30.02 in - NNW 1.2 mph - N/A   Unknown
4:00 PM 53.6 °F 49.3 °F 85% 30.09 in - North 2.3 mph - 0.01 in   Unknown
6:00 PM 51.6 °F 47.1 °F 85% 30.06 in - ESE 6.9 mph - 0.01 in   Unknown
7:00 PM 51.1 °F 46.4 °F 84% 30.06 in - ESE 6.9 mph - N/A   Unknown
8:00 PM 50.0 °F 46.9 °F 89% 30.06 in - ESE 8.1 mph - N/A   Unknown
9:00 PM 50.0 °F 46.0 °F 86% 30.07 in - East 6.9 mph - N/A   Unknown
10:00 PM 50.5 °F 46.0 °F 85% 30.06 in - East 3.5 mph - N/A   Unknown
11:00 PM 50 °F 46 °F 81% 30.06 in - ESE 4.6 mph - -  
11:00 PM 50.2 °F 46.0 °F 86% 30.06 in - ESE 4.6 mph - N/A   Unknown